Hourly Data Report for September 17, 2017

All times are specified in Local Standard Time (LST). Add 1 hour to adjust for Daylight Saving Time where and when it is observed.

BAS CARAQUET
NEW BRUNSWICK

47°48'08.000" N
64°50'00.000" W
5.00 m
8100467
71598
WXS

Download Data

Hourly Data (September 2017)
Hourly Data Report for September 17, 2017
Temp Definition
°C
Dew Point Temp Definition
°C
Rel Hum Definition
%
Wind Dir Definition
10's deg

Wind Spd Definition
km/h
Visibility Definition
km
Stn Press Definition
kPa
Hmdx Definition


Wind Chill Definition


Weather Definition


TIME
00:00 12.3 7.8 74 14 3   102.28     LegendNANA
01:00 12.3 7.7 73 14 4   102.25     LegendNANA
02:00 11.8 8.4 79 14 3   102.22     LegendNANA
03:00 12.0 7.9 76 13 4   102.22     LegendNANA
04:00 11.3 8.5 83 10 2   102.23     LegendNANA
05:00 11.4 8.0 80 9 4   102.27     LegendNANA
06:00 11.4 7.1 75 11 3   102.27     LegendNANA
07:00 11.8 7.4 74 6 5   102.31     LegendNANA
08:00 11.0 9.4 90 6 10   102.33     LegendNANA
09:00 10.6 9.6 94 7 10   102.36     LegendNANA
10:00 10.4 9.9 97 7 7   102.34     LegendNANA
11:00 10.4 10.0 97 8 8   102.34     LegendNANA
12:00 10.2 9.8 97 7 8   102.33     LegendNANA
13:00 10.3 9.9 98 8 8   102.29     LegendNANA
14:00 10.7 10.3 98 9 7   102.28     LegendNANA
15:00 10.7 10.4 98 9 7   102.24     LegendNANA
16:00 10.6 10.4 98 8 7   102.24     LegendNANA
17:00 10.7 10.5 99 8 7   102.25     LegendNANA
18:00 10.7 10.5 99 7 7   102.28     LegendNANA
19:00 10.7 10.5 99 7 7   102.32     LegendNANA
20:00 10.8 10.6 99 8 8   102.32     LegendNANA
21:00 11.0 10.9 99 6 9   102.35     LegendNANA
22:00 11.1 10.9 99 7 7   102.35     LegendNANA
23:00 11.1 11.0 99 7 9   102.34     LegendNANA

Notes on Data Quality.

Legend

  • E = Estimated
  • M = Missing
  • NA = Not Available
  • ‡ = Partner data that is not subject to review by the National Climate Archives
Date modified: